This is the latest recevied weather packets stored in our database for station/object KC5CAM-13. If no packets are shown the sender has not sent any weather packets the latest 10 day(s).
| Time | Temp. | Humidity | Pressure | Rain* | Wind** | Luminosity | Snow |
|---|---|---|---|---|---|---|---|
| 1777647065 | 14.44° C | 82% | 1018.5 hPa | 0 mm | - | 61 W/m² | - |
| 1777646761 | 14.44° C | 82% | 1018.4 hPa | 0 mm | - | 52 W/m² | - |
| 1777646461 | 14.44° C | 82% | 1018.5 hPa | 0 mm | - | 51 W/m² | - |
| 1777646158 | 14.44° C | 82% | 1018.4 hPa | 0 mm | - | 49 W/m² | - |
| 1777645855 | 14.44° C | 82% | 1018.8 hPa | 0 mm | - | 49 W/m² | - |
| 1777645552 | 13.89° C | 82% | 1018.6 hPa | 0 mm | - | 42 W/m² | - |
| 1777645248 | 13.89° C | 83% | 1018.6 hPa | 0 mm | - | 39 W/m² | - |
| 1777644944 | 13.89° C | 84% | 1018.2 hPa | 0 mm | - | 42 W/m² | - |
| 1777644642 | 13.89° C | 84% | 1018 hPa | 0 mm | - | 37 W/m² | - |
| 1777644338 | 13.89° C | 84% | 1017.6 hPa | 0 mm | - | 52 W/m² | - |
| 1777644034 | 13.89° C | 84% | 1017.8 hPa | 0 mm | - | 36 W/m² | - |
| 1777643731 | 13.89° C | 85% | 1017.7 hPa | 0 mm | - | 33 W/m² | - |
| 1777643428 | 13.89° C | 85% | 1017.7 hPa | 0 mm | - | 39 W/m² | - |
| 1777643125 | 13.89° C | 85% | 1017.9 hPa | 0 mm | - | 38 W/m² | - |
| 1777642821 | 13.89° C | 85% | 1018.2 hPa | 0 mm | - | 27 W/m² | - |
| 1777642519 | 13.89° C | 85% | 1018 hPa | 0 mm | - | 25 W/m² | - |
| 1777642215 | 13.89° C | 85% | 1017.7 hPa | 0 mm | - | 26 W/m² | - |
| 1777641912 | 13.89° C | 85% | 1017.7 hPa | 0 mm | - | 32 W/m² | - |
| 1777641608 | 13.89° C | 85% | 1018.2 hPa | 0 mm | - | 34 W/m² | - |
| 1777641308 | 13.89° C | 86% | 1018.3 hPa | 0 mm | - | 36 W/m² | - |
| 1777641004 | 13.89° C | 86% | 1018.4 hPa | 0 mm | - | 30 W/m² | - |
| 1777640700 | 13.89° C | 86% | 1018.4 hPa | 0 mm | - | 18 W/m² | - |
| 1777640397 | 13.89° C | 86% | 1018.1 hPa | 0 mm | - | 16 W/m² | - |
| 1777640094 | 13.89° C | 87% | 1018 hPa | 0 mm | - | 20 W/m² | - |
| 1777639791 | 13.89° C | 87% | 1018 hPa | 0 mm | - | 17 W/m² | - |
* Rain latest hour (hover to see other rain measurements)
** Current wind speed in m/s (hover to see current wind gust speed)